[[{"header":{"parameterUnit":"m.s-1","parameterCategory":1,"la1":30.2991,"la2":30.254,"lo1":-89.0895,"lo2":-89.0444,"dy":0.0017,"dx":0.0017,"nx":28,"ny":28,"refTime":"2025-01-10T03:00:00:Z","depth":0,"parameterNumber":2,"parameterNumberName":"U-component_of_WINDS"},"data":[0,0,0,0,0,0,0,0,0,0,0,0,0,0,0,0,0,0,0,0,0,0,0,0,0,0,0,0,0,0,0,0,0,0,0,0,0,0,0,0,0,0,0,0,0,0,0,0,0,0,0,0,0,0,0,0,0,0,-4.4865,-4.4869,0,-4.5201,-4.5204,-4.5208,-4.5378,-4.5378,-4.5378,-4.5378,-4.572,-4.5729,-4.5738,0,0,0,0,0,0,0,0,0,0,0,0,0,-4.4369,-4.4377,-4.4865,-4.4869,-4.4873,-4.52,-4.5205,-4.5209,-4.5378,-4.5378,-4.5378,-4.5378,-4.5717,-4.5728,-4.5739,0,0,0,0,0,0,0,0,0,0,0,0,0,-4.4632,-4.438,-4.4864,-4.4997,-4.5012,-4.5199,-4.5205,-4.521,-4.5378,-4.5378,-4.5378,-4.5378,-4.5714,-4.5727,-4.574,-4.582,0,0,-4.5781,-4.5787,0,0,0,0,0,0,0,0,-4.4617,-4.465,-4.4973,-4.4988,-4.5005,-4.5248,-4.5155,-4.5415,-4.5378,-4.5239,-4.5378,-4.5378,-4.5563,-4.5589,-4.5651,-4.5836,-4.5851,-4.5783,-4.5791,-4.5797,-4.58,0,0,0,0,0,0,0,-4.4599,-4.4637,-4.4998,-4.4978,-4.4997,-4.5039,-4.5077,-4.5205,-4.5396,-4.5251,-4.5264,-4.5302,-4.5572,-4.5638,-4.566,-4.5856,-4.5782,-4.5794,-4.5802,-4.5808,-4.6124,-4.6125,0,0,0,0,0,0,-4.4559,-4.462,-4.4987,-4.5008,-4.4808,-4.5048,-4.509,-4.517,-4.5395,-4.5429,-4.5301,-4.5308,-4.5615,-4.5644,-4.5673,-4.5783,-4.5796,-4.5809,-4.5817,-4.6124,-4.6125,-4.6125,0,0,0,0,0,0,-4.4548,-4.459,-4.4974,-4.4818,-4.487,-4.5056,-4.5144,-4.5176,-4.5243,-4.5433,-4.5467,-4.5334,-4.5616,-4.5654,-4.5783,-4.5797,-4.5815,-4.5827,-4.6124,-4.6124,-4.6125,-4.6001,0,0,0,0,0,0,-4.4533,-4.4585,-4.4618,-4.4817,-4.4878,-4.5077,-4.5145,-4.5183,-4.5266,-4.5278,-4.5473,-4.5505,-4.5619,-4.5762,-4.5796,-4.5816,-4.5838,-4.6123,-4.6124,-4.6125,-4.6005,-4.5997,-4.5991,0,0,0,0,0,-4.4515,-4.4569,-4.4619,-4.4662,-4.4922,-4.5078,-4.5112,-4.5243,-4.5266,-4.53,-4.5422,-4.5499,-4.5789,-4.5773,-4.5814,-4.5837,-4.6123,-4.6124,-4.6125,-4.6008,-4.5999,-4.5991,0,0,0,0,0,0,-4.4366,-4.4598,-4.4655,-4.4776,-4.4906,-4.5106,-4.5154,-4.5229,-4.5355,-4.5361,-4.5517,-4.556,-4.5674,-4.5769,-4.5747,-4.5927,-4.5964,-4.5972,-4.5861,-4.5854,-4.5847,-4.5822,-4.5849,0,0,0,0,0,-4.4347,-4.4454,-4.4651,-4.4739,-4.4801,-4.4965,-4.5038,-4.5128,-4.5268,-4.5324,-4.5456,-4.5589,-4.5711,-4.5788,-4.591,-4.6019,-4.6064,-4.6055,-4.6048,-4.6042,-4.6047,-4.6113,-4.6112,-4.6127,-4.6127,-4.6127,0,0,-4.4309,-4.4449,-4.4508,-4.4712,-4.4824,-4.4931,-4.5011,-4.5121,-4.5203,-4.5341,-4.5471,-4.5572,-4.5731,-4.585,-4.5909,-4.5933,-4.6053,-4.6042,-4.6036,-4.6046,-4.6113,-4.6112,-4.611,-4.6128,-4.6128,-4.6128,0,0,-4.4296,-4.4412,-4.4499,-4.4609,-4.4776,-4.4886,-4.4905,-4.5095,-4.5168,-4.5301,-4.5407,-4.5506,-4.5712,-4.5821,-4.5903,-4.5931,-4.6006,-4.5966,-4.593,-4.5992,-4.5991,-4.5991,-4.6001,-4.6003,-4.5972,-4.5971,-4.5971,0,-4.4228,-4.4395,-4.4533,-4.4638,-4.4725,-4.4856,-4.4944,-4.5044,-4.5242,-4.5299,-4.5323,-4.5585,-4.5701,-4.5848,-4.5854,-4.5917,-4.5945,-4.5945,-4.598,-4.5981,-4.5983,-4.5995,-4.5998,-4.5965,-4.5966,-4.5967,-4.5967,0,-4.4303,-4.4417,-4.4466,-4.4656,-4.4748,-4.4844,-4.4996,-4.5073,-4.5154,-4.526,-4.5394,-4.5538,-4.5692,-4.5734,-4.5814,-4.5892,-4.5902,-4.595,-4.599,-4.5973,-4.5987,-4.5993,-4.5957,-4.5959,-4.5961,-4.5962,0,0,-4.4206,-4.4471,-4.4486,-4.4574,-4.4769,-4.4859,-4.4961,-4.5112,-4.5175,-4.5308,-4.5397,-4.5568,-4.5615,-4.5708,-4.5802,-4.5855,-4.5869,-4.5899,-4.5905,-4.5888,-4.5965,-4.5928,-4.5931,-4.592,-4.5921,-4.5922,-4.5952,0,-4.422,-4.441,-4.4537,-4.4676,-4.4783,-4.4908,-4.4997,-4.5125,-4.5227,-4.5333,-4.5446,-4.5565,-4.5617,-4.5674,-4.5733,-4.5854,-4.5887,-4.5854,-4.6005,-4.6008,-4.5961,-4.5938,-4.5899,-4.5921,-4.5959,-4.596,-4.596,0,-4.4263,-4.4392,-4.4541,-4.4725,-4.4775,-4.4852,-4.5002,-4.5101,-4.5249,-4.532,-4.5423,-4.5519,-4.5631,-4.566,-4.5818,-4.5793,-4.5862,-4.5931,-4.5935,-4.5954,-4.5983,-4.5958,-4.5931,-4.5934,-4.597,-4.5969,-4.5969,0,-4.4177,-4.4389,-4.4506,-4.4577,-4.4794,-4.4845,-4.4938,-4.5087,-4.517,-4.53,-4.5355,-4.5496,-4.5573,-4.568,-4.5811,-4.582,-4.5955,-4.5995,-4.6017,-4.6013,-4.604,-4.6037,-4.6024,-4.6083,-4.6082,-4.6082,-4.6082,0,-4.4181,-4.4267,-4.4471,-4.4543,-4.4643,-4.4789,-4.4884,-4.4987,-4.5119,-4.5213,-4.5329,-4.5415,-4.5582,-4.5688,-4.5791,-4.5906,-4.594,-4.6,-4.6027,-4.5991,-4.5983,-4.6038,-4.604,-4.6084,-4.6083,-4.6083,-4.6083,0,-4.4103,-4.4242,-4.4379,-4.4573,-4.4623,-4.4689,-4.4855,-4.493,-4.5038,-4.5156,-4.5192,-4.5361,-4.5492,-4.5633,-4.5811,-4.5881,-4.5991,-4.6028,-4.594,-4.5956,-4.597,-4.5967,-4.5993,-4.6004,-4.6053,-4.6052,-4.6052,0,-4.4096,-4.4166,-4.4367,-4.4439,-4.4529,-4.4643,-4.4728,-4.4874,-4.4958,-4.5132,-4.5186,-4.5325,-4.5445,-4.5649,-4.5788,-4.5925,-4.5967,-4.5966,-4.5988,-4.5949,-4.5968,-4.5962,-4.597,-4.5959,-4.5958,-4.5957,-4.5956,0,-4.4069,-4.4135,-4.4254,-4.4397,-4.4496,-4.4615,-4.4739,-4.4791,-4.4961,-4.505,-4.5186,-4.5278,-4.5461,-4.5598,-4.5752,-4.5848,-4.5931,-4.5948,-4.5961,-4.5925,-4.5872,-4.5902,-4.5923,-4.5947,-4.5948,-4.5949,-4.5949,-4.595,-4.4028,-4.4096,-4.4248,-4.4377,-4.4486,-4.4599,-4.4679,-4.4797,-4.4913,-4.5073,-4.5152,-4.5287,-4.5435,-4.565,-4.5744,-4.5852,-4.5877,-4.5894,-4.5899,-4.5902,-4.5892,-4.5853,-4.588,-4.5881,-4.5881,-4.5881,-4.5882,0,-4.4008,-4.4112,-4.4229,-4.4399,-4.45,-4.4569,-4.471,-4.479,-4.4908,-4.5039,-4.5154,-4.531,-4.5444,-4.5594,-4.5737,-4.5795,-4.5836,-4.5827,-4.5825,-4.5846,-4.5861,-4.5837,-4.5792,-4.5792,-4.5792,-4.5792,-4.5792,-4.5792,-4.4009,-4.4128,-4.4212,-4.4386,-4.449,-4.4624,-4.4699,-4.4804,-4.4909,-4.5078,-4.519,-4.5287,-4.5426,-4.558,-4.5706,-4.5747,-4.5794,-4.5774,-4.5826,-4.5837,-4.5845,-4.5852,-4.5829,-4.5783,-4.5783,-4.5802,-4.5802,-4.5802]},{"header":{"parameterUnit":"m.s-1","parameterCategory":1,"la1":30.2991,"la2":30.254,"lo1":-89.0895,"lo2":-89.0444,"dy":0.0017,"dx":0.0017,"nx":28,"ny":28,"refTime":"2025-01-10T03:00:00:Z","depth":0,"parameterNumber":3,"parameterNumberName":"V-component_of_WINDS"},"data":[0,0,0,0,0,0,0,0,0,0,0,0,0,0,0,0,0,0,0,0,0,0,0,0,0,0,0,0,0,0,0,0,0,0,0,0,0,0,0,0,0,0,0,0,0,0,0,0,0,0,0,0,0,0,0,0,0,0,11.0841,11.0844,0,11.1129,11.1133,11.1136,11.1083,11.1078,11.1072,11.1068,11.1356,11.1368,11.138,0,0,0,0,0,0,0,0,0,0,0,0,0,11.024,11.0251,11.0841,11.0845,11.0848,11.1129,11.1133,11.1137,11.1084,11.1077,11.1071,11.1065,11.1352,11.1367,11.1382,0,0,0,0,0,0,0,0,0,0,0,0,0,11.0512,11.0255,11.084,11.0856,11.086,11.1128,11.1133,11.1138,11.1085,11.1077,11.1069,11.1062,11.1347,11.1365,11.1384,11.1653,0,0,11.1441,11.1449,0,0,0,0,0,0,0,0,11.0496,11.0534,11.085,11.0855,11.086,11.1062,11.1027,11.131,11.1087,11.0999,11.1067,11.1059,11.1264,11.1289,11.136,11.1666,11.1678,11.1442,11.1454,11.1462,11.1467,0,0,0,0,0,0,0,11.0477,11.0521,11.0955,11.0854,11.0861,11.0847,11.0877,11.108,11.1171,11.1006,11.1003,11.1038,11.1265,11.1342,11.1366,11.1683,11.1442,11.1458,11.147,11.1477,11.2226,11.2235,0,0,0,0,0,0,11.0454,11.0506,11.0946,11.0963,11.0656,11.0864,11.0897,11.1005,11.1169,11.1186,11.1045,11.1035,11.1314,11.1344,11.1376,11.1703,11.1461,11.1479,11.149,11.2218,11.2228,11.2238,0,0,0,0,0,0,11.0442,11.0494,11.0934,11.0734,11.0789,11.0882,11.1004,11.1015,11.1091,11.1198,11.1213,11.1107,11.1309,11.135,11.1585,11.1712,11.1487,11.1504,11.2207,11.2221,11.2233,11.2359,0,0,0,0,0,0,11.0425,11.049,11.0594,11.0737,11.08,11.114,11.1012,11.1026,11.1125,11.1114,11.126,11.1276,11.1306,11.1558,11.1604,11.1734,11.1519,11.2196,11.2213,11.2229,11.2344,11.2374,11.2401,0,0,0,0,0,11.0403,11.0616,11.06,11.0653,11.0932,11.1147,11.1183,11.1215,11.1135,11.124,11.1309,11.1272,11.1691,11.1582,11.1634,11.1771,11.2188,11.2209,11.2228,11.2331,11.2368,11.24,0,0,0,0,0,0,11.0482,11.0635,11.0618,11.0884,11.1004,11.1138,11.1271,11.1254,11.1396,11.1381,11.1412,11.1445,11.1685,11.1752,11.1627,11.2042,11.1928,11.1959,11.1989,11.2026,11.2054,11.2032,11.1534,0,0,0,0,0,11.0531,11.0695,11.0819,11.1041,11.1102,11.1177,11.1272,11.1286,11.1411,11.146,11.1546,11.1666,11.1825,11.1929,11.2081,11.2353,11.2384,11.2474,11.2502,11.2525,11.2551,11.2702,11.2743,11.2302,11.2302,11.2301,0,0,11.0632,11.0736,11.0837,11.1059,11.1154,11.1322,11.1219,11.1401,11.1526,11.1487,11.1715,11.1783,11.1919,11.2175,11.2292,11.2238,11.268,11.255,11.2568,11.2581,11.2726,11.2768,11.2805,11.2315,11.2313,11.2311,0,0,11.0903,11.0998,11.1194,11.1293,11.1438,11.1487,11.1535,11.1674,11.1718,11.1949,11.1924,11.2072,11.2345,11.2444,11.253,11.2843,11.2814,11.2891,11.304,11.3186,11.3221,11.3252,11.3364,11.3404,11.2917,11.2917,11.2917,0,11.1009,11.1264,11.1297,11.1483,11.1582,11.1558,11.1757,11.185,11.2037,11.2105,11.2043,11.2387,11.2477,11.2756,11.2833,11.2904,11.2958,11.2874,11.3214,11.3245,11.3275,11.3382,11.3424,11.2925,11.2925,11.2924,11.2923,0,11.1388,11.1565,11.1706,11.1892,11.2006,11.2197,11.2259,11.237,11.2376,11.2431,11.2667,11.2775,11.295,11.3017,11.3023,11.3299,11.3261,11.3206,11.3093,11.3325,11.3426,11.3467,11.2938,11.2935,11.2932,11.293,0,0,11.1714,11.1918,11.1969,11.2054,11.2215,11.2352,11.2542,11.2716,11.2812,11.2942,11.3103,11.3336,11.3288,11.3386,11.3403,11.3531,11.3774,11.3461,11.3465,11.3516,11.4085,11.4125,11.4173,11.3757,11.3765,11.3771,11.4074,0,11.2,11.2339,11.2376,11.2678,11.2842,11.2824,11.299,11.3106,11.3164,11.331,11.3372,11.3538,11.3461,11.3521,11.3647,11.3717,11.3888,11.3696,11.3905,11.3912,11.3872,11.4225,11.4268,11.4549,11.4114,11.4121,11.4125,0,11.2378,11.2524,11.2843,11.2984,11.3054,11.3203,11.3367,11.3508,11.364,11.3672,11.3784,11.3785,11.3981,11.3862,11.4132,11.4,11.4088,11.4136,11.4148,11.4168,11.4032,11.4255,11.4639,11.4681,11.4188,11.4183,11.4178,0,11.2584,11.286,11.3088,11.3161,11.333,11.3436,11.3511,11.3636,11.3739,11.3881,11.3949,11.4111,11.42,11.4325,11.437,11.4279,11.4639,11.4523,11.4671,11.467,11.4747,11.4741,11.515,11.4804,11.4803,11.4802,11.4802,0,11.29,11.3096,11.3183,11.3323,11.3543,11.3583,11.3799,11.3869,11.3981,11.4133,11.4126,11.4269,11.432,11.4471,11.4507,11.4726,11.4766,11.4797,11.4804,11.4798,11.4794,11.4856,11.4837,11.4814,11.4811,11.4809,11.4807,0,11.3167,11.3233,11.348,11.3623,11.3663,11.3819,11.394,11.4074,11.4131,11.4324,11.4372,11.446,11.4638,11.4696,11.491,11.4934,11.519,11.518,11.5147,11.5148,11.5294,11.5279,11.5756,11.5821,11.5431,11.5435,11.5438,0,11.3364,11.3515,11.3675,11.3778,11.3859,11.4025,11.4131,11.4177,11.4288,11.4452,11.4567,11.4744,11.4888,11.5173,11.5255,11.542,11.5413,11.5569,11.5438,11.5428,11.5417,11.5407,11.5423,11.5594,11.5598,11.5601,11.5604,0,11.3706,11.3733,11.3888,11.4056,11.4184,11.4318,11.4447,11.4531,11.4596,11.4721,11.4905,11.5017,11.5238,11.5414,11.5582,11.5657,11.5643,11.5645,11.5688,11.5683,11.5658,11.5675,11.5214,11.5633,11.563,11.5628,11.5627,11.5625,11.3945,11.408,11.4215,11.4388,11.4491,11.4613,11.4747,11.4823,11.4978,11.5163,11.518,11.5379,11.5508,11.5733,11.5818,11.5973,11.5928,11.599,11.6006,11.6021,11.6033,11.5634,11.6003,11.6002,11.6002,11.6001,11.6001,0,11.4288,11.4375,11.4535,11.4717,11.4854,11.4831,11.4974,11.5089,11.5265,11.5388,11.5532,11.5744,11.5916,11.6013,11.6184,11.629,11.6287,11.6333,11.6326,11.6344,11.6063,11.6009,11.6333,11.6333,11.6333,11.6333,11.6333,11.6332,11.4483,11.471,11.4753,11.5031,11.5116,11.5313,11.5397,11.5509,11.5608,11.5847,11.599,11.6054,11.6167,11.6348,11.6504,11.6528,11.6592,11.6643,11.6662,11.6397,11.6363,11.6331,11.628,11.6656,11.6657,11.6931,11.6933,11.6935]}]]